Airfield :
LOGIN :

Register | Disclaimer

   EN    FR    IT 

 










Legend :    VFR   Marginal VFR   IFR   Intensive IFR   Very Intensive IFR
Visi :
Ceiling :
>= 8 km
>= 3000ft
5 to 8 km
1000 to 3000 ft
1500m to 5 km
500 to 1000 ft
800 to 1500m
200 to 500 ft
< 800m
< 200 ft
Symbols :   Thunderstorms  Fog  Heavy snow  Heavy precipitations  Wind > 20 kt
SIGMETs :     Misc.  Thunderstorms  Icing  Turbulence  Mountain Waves  Volcanic Ashes







- Airport Elevation : 479 ft
- IATA code : DOL
- Download approach charts


LFRG - Deauville

CURRENT METAR :
  • 222200Z AUTO 25005KT 9999 SCT042 BKN049 BKN140 11/06 Q1016

EXPIRED METARs :
  • 222130Z AUTO VRB01KT 9999 BKN035 BKN041 10/06 Q1015
  • 222100Z AUTO VRB03KT 9999 BKN035 11/06 Q1015
  • 222030Z AUTO 33003KT 9999 FEW035 SCT042 11/06 Q1015
  • 222000Z AUTO 34003KT 300V020 9999 FEW037 BKN120 12/07 Q1014 NOSIG
  • 221930Z AUTO 35003KT CAVOK 12/07 Q1014 NOSIG

TAF TAF LFRG
Valid from the 22 at 15:00 until the 23 at 00:00 UTC


221400Z 2215/2224 30012KT CAVOK
PROB40
TEMPO 2215/2218 3000 TSRA BKN050CB
ATIS : +33 2 31 65 65 36
No reported NOTAMs for that airfield.



MET'MAP, your aeronautical weather chart ! - Copyright ORBIFLY December 2007 - Disclaimer

ORBIFLY MET'MAP TEAM :

Programming & Development : Alexandra Zaïnal
Concept & Development : Baudouin d'Aumeries
Co-Development & Prog : Marc-Olivier Méhu
Technical & hardware support : Manuel Goepfert

Contact : metmap@orbifly.com




SOURCES & CREDITS :

   NOAA